Flag for Lebanon Weather past 2 weeks in Beirut, Lebanon

77 °F

Passing clouds.

Feels Like: 79 °F
Forecast: 73 / 78 °F
Wind: 10 mph from South

Location: Beirut Airport

Current Time: Oct 7, 2015 at 1:58:02 AM

Latest Report: Oct 7, 2015 at 1:00 AM

Visibility: 5 mi

Pressure: 29.77 "Hg

Humidity: 61%

Dew point: 63 °F

Location of BeirutLocation

Historic Weather in Beirut — Graph


Beirut temperature yesterday

Maximum temperature yesterday: 84 °F (at 1:00 PM)
Minimum temperature yesterday: 75 °F (at 7:00 AM)
Average temperature yesterday: 79 °F

Past Weeks' High & Low Weather Summary

High91 °F (Sep 23, 11:00 AM)79% (Oct 3, 5:00 AM)30.15 "Hg (Oct 3, 5:00 AM)
Low75 °F (Oct 6, 7:00 AM)28% (Sep 23, 8:00 AM)29.77 "Hg (Oct 6, 3:00 PM)
Average82 °F59%29.97 "Hg
* Reported Midnight between Sep 21 and Sep 22 — Midnight between Oct 6 and Oct 7, Beirut, Weather by CustomWeather, © 2015

Note: Actual official high and low records may vary slightly from our data, if they occured in-between our weather recording intervals... More about our weather records


Beirut weather history for previous 24 hours

Time TempWeatherWind HumidityBarometerVisibility
12:00 AM
Wed, Oct 7
77 °FPassing clouds.9 mph61%29.77 "Hg5 mi
11:00 PM
Tue, Oct 6
77 °FPassing clouds.9 mph65%29.80 "Hg5 mi
10:00 PM79 °FPassing clouds.9 mph58%29.80 "Hg5 mi
9:00 PM79 °FPassing clouds.9 mph58%29.80 "Hg5 mi
8:00 PM79 °FPassing clouds.13 mph61%29.80 "Hg5 mi
7:00 PM81 °FScattered clouds.13 mph58%29.77 "Hg5 mi
6:00 PM81 °FScattered clouds.13 mph58%29.77 "Hg5 mi
5:00 PM82 °FScattered clouds.13 mph55%29.77 "HgN/A
4:00 PM82 °FScattered clouds.12 mph55%29.77 "HgN/A
3:00 PM82 °FScattered clouds.13 mph58%29.77 "Hg5 mi
1:00 PM84 °FPartly sunny.13 mph51%29.80 "HgN/A
12:00 PM82 °FPartly sunny.10 mph48%29.83 "HgN/A
11:00 AM82 °FPartly sunny.9 mph48%29.86 "HgN/A
10:00 AM81 °FPartly sunny.12 mph54%29.86 "HgN/A
9:00 AM79 °FPartly sunny.5 mph51%29.86 "HgN/A
8:00 AM77 °FScattered clouds.5 mph57%29.86 "Hg5 mi
7:00 AM75 °FPassing clouds.5 mph61%29.83 "Hg5 mi
6:00 AM77 °FPassing clouds.3 mph61%29.83 "Hg5 mi
5:00 AM77 °FPassing clouds.3 mph61%29.86 "Hg5 mi
4:00 AM79 °FPassing clouds.9 mph61%29.86 "Hg4 mi
3:00 AM77 °FPassing clouds.5 mph65%29.86 "Hg5 mi
2:00 AM77 °FPassing clouds.6 mph69%29.89 "Hg5 mi
1:00 AM77 °FPassing clouds.5 mph69%29.89 "Hg5 mi
Weather by CustomWeather, © 2015

See weather overviewHow to use our weather pages